Alicante, Spain

5:04 PM CEST on September 21, 2017 (GMT +0200)
Alicante

Weather History for LEAL - November, 2013

Change the Weather History Date:

Sunday, November 3, 2013

  Actual Average Record
Temperature  
Mean Temperature 72 °F -  
Max Temperature 83 °F 64 °F 83 °F (2013)
Min Temperature 60 °F 48 °F 48 °F (1996)
Cooling Degree Days 6    
Growing Degree Days 22 (Base 50)    
Moisture  
Dew Point 53 °F    
Average Humidity 54    
Maximum Humidity 83    
Minimum Humidity 15    
Precipitation  
Precipitation 0.00 in - - ()
Sea Level Pressure  
Sea Level Pressure 30.03 in    
Wind  
Wind Speed 9 mph ()    
Max Wind Speed 20 mph    
Max Gust Speed 20 mph    
Visibility 12.0 miles    
Events      
Averages and records for this station are not official NWS values.
T = Trace of Precipitation, MM = Missing Value Source: Averaged Metar Reports

Daily Weather History Graph

Daily Weather History Graph

Search for Another Location

Airport or City:

Trip Planner

Search our weather history database for the weather conditions in past years. The results will help you decide how hot, cold, wet, or windy it might be!

Date:

Astronomy

Nov. 03, 2013 Rise Set
Actual Time 7:30 AM CET 6:00 PM CET
Civil Twilight 7:02 AM CET 6:27 PM CET
Nautical Twilight 6:31 AM CET 6:59 PM CET
Astronomical Twilight 6:00 AM CET 7:30 PM CET
Moon 7:17 AM CET (11/3) 6:04 PM CET (11/3)
Length of Visible Light 11h 24m
Length of Day
10h 29m
Waning Crescent, 0% of the Moon is Illuminated
Nov 3
Waning Crescent
Nov 3
New
Nov 10
First Quarter
Nov 17
Full
Nov 25
Last Quarter

Hourly Weather History & Observations

Time (CET) Temp. Dew Point Humidity Pressure Visibility Wind Dir Wind Speed Gust Speed Precip Events Conditions
12:00 AM 64.4 °F 46.4 °F 52% 30.04 in - SW 8.1 mph - N/A   Clear
12:30 AM 62.6 °F 46.4 °F 55% 30.04 in - SW 8.1 mph - N/A   Clear
1:00 AM 60 °F 44 °F 44% 30.03 in 12 mi SW 6.9 mph - -  
1:00 AM 62.6 °F 46.4 °F 55% 30.01 in - SW 6.9 mph - N/A   Clear
1:30 AM 64.4 °F 44.6 °F 49% 30.01 in - West 5.8 mph - N/A   Clear
2:00 AM 71.6 °F 44.6 °F 38% 30.01 in - West 10.4 mph - N/A   Clear
2:30 AM 69.8 °F 44.6 °F 40% 30.01 in - SW 8.1 mph - N/A   Clear
3:00 AM 62.6 °F 44.6 °F 52% 30.01 in - SSW 6.9 mph - N/A   Clear
3:30 AM 62.6 °F 46.4 °F 55% 30.01 in - SW 5.8 mph - N/A   Clear
4:00 AM 64.4 °F 46.4 °F 52% 30.01 in - SSW 5.8 mph - N/A   Clear
4:30 AM 71.6 °F 48.2 °F 43% 30.01 in - NW 8.1 mph 19.6 mph N/A   Clear
5:00 AM 71.6 °F 48.2 °F 43% 30.01 in - WNW 18.4 mph - N/A   Clear
5:30 AM 71.6 °F 48.2 °F 43% 30.01 in - WNW 18.4 mph - N/A   Clear
6:00 AM 71.6 °F 48.2 °F 43% 30.01 in - WNW 19.6 mph - N/A   Clear
6:30 AM 69.8 °F 48.2 °F 46% 30.01 in - NW 13.8 mph - N/A   Clear
7:00 AM 69.8 °F 50.0 °F 49% 30.04 in - WNW 13.8 mph - N/A   Clear
7:30 AM 68.0 °F 50.0 °F 52% 30.04 in - SE 3.5 mph - N/A   Clear
8:00 AM 68.0 °F 50.0 °F 52% 30.04 in - WSW 4.6 mph - N/A   Clear
8:30 AM 69.8 °F 50.0 °F 49% 30.06 in - West 9.2 mph - N/A   Clear
9:00 AM 69.8 °F 51.8 °F 53% 30.06 in - SW 8.1 mph - N/A   Clear
9:30 AM 71.6 °F 51.8 °F 50% 30.06 in - WSW 11.5 mph - N/A   Clear
10:00 AM 71.6 °F 50.0 °F 46% 30.06 in - SW 9.2 mph - N/A   Clear
10:30 AM 77.0 °F 50.0 °F 39% 30.06 in - West 13.8 mph - N/A   Clear
11:00 AM 78.8 °F 48.2 °F 34% 30.06 in - West 16.1 mph - N/A   Clear
11:30 AM 80.6 °F 48.2 °F 32% 30.06 in - WNW 15.0 mph - N/A   Clear
12:00 PM 80.6 °F 48.2 °F 32% 30.04 in - WNW 11.5 mph - N/A   Clear
12:30 PM 82.4 °F 48.2 °F 30% 30.04 in - West 12.7 mph - N/A   Clear
1:00 PM 82 °F 42 °F 15% 30.03 in 25 mi West 13.8 mph - -   Clear
1:00 PM 84.2 °F 46.4 °F 27% 30.04 in - West 13.8 mph - N/A   Clear
1:30 PM 84.2 °F 46.4 °F 27% 30.01 in - West 15.0 mph - N/A   Clear
2:00 PM 78.8 °F 57.2 °F 47% 30.01 in - ENE 10.4 mph - N/A   Clear
2:30 PM 78.8 °F 57.2 °F 47% 30.01 in - ENE 12.7 mph - N/A   Clear
3:00 PM 78.8 °F 57.2 °F 47% 30.01 in - NE 11.5 mph - N/A   Clear
3:30 PM 77.0 °F 57.2 °F 50% 30.01 in - NE 12.7 mph - N/A   Clear
4:00 PM 77.0 °F 57.2 °F 50% 30.01 in - NE 11.5 mph - N/A   Clear
4:30 PM 77.0 °F 64.4 °F 65% 30.01 in - NNE 12.7 mph - N/A   Clear
5:00 PM 75.2 °F 64.4 °F 69% 30.01 in - NNE 13.8 mph - N/A   Clear
5:30 PM 73.4 °F 64.4 °F 73% 30.01 in - NNE 12.7 mph - N/A   Clear
6:00 PM 71.6 °F 66.2 °F 83% 30.04 in - NE 10.4 mph - N/A   Clear
6:30 PM 71.6 °F 66.2 °F 83% 30.04 in - NE 8.1 mph - N/A   Clear
7:00 PM 69 °F 63 °F 76% 30.04 in 22 mi NE 8.1 mph - -   Clear
7:00 PM 71.6 °F 66.2 °F 83% 30.04 in - NE 6.9 mph - N/A   Clear
7:30 PM 69.8 °F 64.4 °F 83% 30.04 in - North 4.6 mph - N/A   Clear
8:00 PM 68.0 °F 62.6 °F 83% 30.04 in - North 5.8 mph - N/A   Clear
8:30 PM 68.0 °F 60.8 °F 78% 30.04 in - North 6.9 mph - N/A   Clear
9:00 PM 68.0 °F 60.8 °F 78% 30.04 in - North 6.9 mph - N/A   Clear
9:30 PM 68.0 °F 60.8 °F 78% 30.04 in - North 4.6 mph - N/A   Clear
10:00 PM 66.2 °F 60.8 °F 83% 30.04 in - Variable 2.3 mph - N/A   Clear
10:30 PM 68.0 °F 59.0 °F 73% 30.04 in - NW 4.6 mph - N/A   Clear
11:00 PM 66.2 °F 57.2 °F 73% 30.04 in - West 3.5 mph - N/A   Clear
11:30 PM 64.4 °F 55.4 °F 73% 30.04 in - Calm Calm - N/A   Clear